COSMOS 1275 DEB, 39939

Orbit data source: Space-Track

COSMOS 1275 DEB, 39939 is space debris in LEO originally from a launch on Thu, 04 Jun 1981 UTC launched from the Plesetsk Missile And Space Complex (PKMTR). Debris objects in space refer to the collection of defunct objects orbiting the Earth. Examples of debris include non-operational satellites, rocket bodies, and fragments generated from explosions, collisions, or faulty payload assembly.

Loading next visibility...
Identifier
39939, 1981-053MZ
Orbit
LEO
Country
Flag of CISCIS
Related business
Manufacturer
Unknown
Mission
Spacecraft
Bus & Motor
Unknown
Mass
Unknown
Launch date (UTC)
1981-06-04 (45 years ago)
Launch vehicle
Unknown
Launch site
Plesetsk Missile And Space Complex (PKMTR)
Object type
Payload
Rocket body
Debris
Shape & HBR
Unknown shape, 0.1 m
Radar Cross Section
Small (<0.1 m²)

Expand to show TLE details & history
Last TLE update: 4 days ago

TLE from 4 days ago
0 COSMOS 1275 DEB
1 39939U 81053MZ  26251.11562150  .00000434  00000-0  40587-3 0  9995
2 39939  82.8191  29.3027 0069098 283.4134  75.9328 13.78724220616175
Epoch: 2026-09-08T02:46Z
TLE epoch observation values (Epoch: 2026-09-08T02:46:29.697Z)
Latitude
-0.00006°
Longitude
0.49229°
Altitude
959.307 km
Speed
7.378 km/s
True Right ascension
01h 57m 12s
True Declination
0° 00' 00"
Sunlit
Object was in full shadow at epoch
Visualization orbit readout
Latitude
Unknown
Longitude
Unknown
Altitude
Unknown
Speed
Unknown
Apparent Right ascension
Unknown
Apparent Declination
Unknown
Sunlit
N/A
Visualization observer readout
Local Sidereal Time
01:58:27
Azimuth
Unknown
Elevation
Unknown
Doppler factor
Unknown
Orbital elements
Apogee altitude
1,016.307 km
Perigee altitude
914.82 km
Semi-major axis
7,343.7 km
Eccentricity
0.00691
Inclination
82.8191°
RAAN
29.3027°
Arg. of periapsis
283.4134°
True anomaly
76.70245°
Mean anomaly
75.9328°
Eccentric anomaly
76.31747°
Mean motion
3.44882 °/min
Orbital period
104.38 mins
BSTAR
0.00040587
Loading maneuver chart data...
Computing Atmospheric mass density...
Loading historical data...
Loading historical data...
Loading historical data...
Loading historical data...
Loading historical data...
Loading historical data...
Loading historical data...

Documentation

Showing up to 5 results
|